date,time,SUV Intensity [MED/Hr],UV Index,Daily total [MED],Since Last [MED]
14/07/2023,23:58:57,-0.000,0.0,2.615,2.615
14/07/2023,23:59:57,-0.000,0.0,2.615,0.0
15/07/2023,00:00:57,0.000,0.0,0.0,-2.615
15/07/2023,00:01:56,0.000,0.0,0.0,0.0
15/07/2023,00:02:57,-0.000,0.0,0.0,0.0
15/07/2023,00:03:57,0.000,0.0,0.0,0.0
15/07/2023,00:04:57,0.000,0.0,0.0,0.0
15/07/2023,00:05:57,0.000,0.0,0.0,0.0
15/07/2023,00:06:56,0.000,0.0,0.0,0.0
15/07/2023,00:07:57,0.000,0.0,0.0,0.0
15/07/2023,00:08:57,0.000,0.0,0.0,0.0
15/07/2023,00:09:56,0.000,0.0,0.0,0.0
15/07/2023,00:10:57,0.000,0.0,0.0,0.0
15/07/2023,00:11:57,0.000,0.0,0.0,0.0
15/07/2023,00:12:57,0.000,0.0,0.0,0.0
15/07/2023,00:13:56,0.000,0.0,0.0,0.0
15/07/2023,00:14:57,-0.000,0.0,0.0,0.0
15/07/2023,00:15:57,0.000,0.0,0.0,0.0
15/07/2023,00:16:57,0.000,0.0,0.0,0.0
15/07/2023,00:17:58,0.000,0.0,0.0,0.0
15/07/2023,00:18:57,0.000,0.0,0.0,0.0
15/07/2023,00:19:57,0.000,0.0,0.0,0.0
15/07/2023,00:20:57,0.000,0.0,0.0,0.0
15/07/2023,00:21:57,0.000,0.0,0.0,0.0
15/07/2023,00:22:57,0.000,0.0,0.0,0.0
15/07/2023,00:23:57,0.000,0.0,0.0,0.0
15/07/2023,00:24:57,0.000,0.0,0.0,0.0
15/07/2023,00:25:56,0.000,0.0,0.0,0.0
15/07/2023,00:26:57,0.000,0.0,0.0,0.0
15/07/2023,00:27:57,0.000,0.0,0.0,0.0
15/07/2023,00:28:57,0.000,0.0,0.0,0.0
15/07/2023,00:29:57,0.000,0.0,0.0,0.0
15/07/2023,00:30:57,0.000,0.0,0.0,0.0
15/07/2023,00:31:57,0.000,0.0,0.0,0.0
15/07/2023,00:32:57,0.000,0.0,0.0,0.0
15/07/2023,00:33:57,0.000,0.0,0.0,0.0
15/07/2023,00:34:57,0.000,0.0,0.0,0.0
15/07/2023,00:35:56,0.000,0.0,0.0,0.0
15/07/2023,00:36:57,0.000,0.0,0.0,0.0
15/07/2023,00:37:56,0.001,0.0,0.0,0.0
15/07/2023,00:38:57,0.000,0.0,0.0,0.0
15/07/2023,00:39:57,0.000,0.0,0.0,0.0
15/07/2023,00:40:58,0.000,0.0,0.0,0.0
15/07/2023,00:41:57,0.000,0.0,0.0,0.0
15/07/2023,00:42:57,0.000,0.0,0.0,0.0
15/07/2023,00:43:57,0.001,0.0,0.0,0.0
15/07/2023,00:44:56,0.000,0.0,0.0,0.0
15/07/2023,00:45:57,0.000,0.0,0.0,0.0
15/07/2023,00:46:57,0.000,0.0,0.0,0.0
15/07/2023,00:47:57,0.000,0.0,0.0,0.0
15/07/2023,00:48:57,0.000,0.0,0.0,0.0
15/07/2023,00:49:57,0.000,0.0,0.0,0.0
15/07/2023,00:50:57,0.000,0.0,0.0,0.0
15/07/2023,00:51:57,0.000,0.0,0.0,0.0
15/07/2023,00:52:57,0.001,0.0,0.0,0.0
15/07/2023,00:53:57,0.001,0.0,0.0,0.0
15/07/2023,00:54:57,0.001,0.0,0.0,0.0
15/07/2023,00:55:57,0.001,0.0,0.0,0.0
15/07/2023,00:56:57,0.001,0.0,0.0,0.0
15/07/2023,00:57:57,0.001,0.0,0.0,0.0
15/07/2023,00:58:57,0.001,0.0,0.0,0.0
15/07/2023,00:59:56,0.000,0.0,0.0,0.0
15/07/2023,01:00:57,0.002,0.0,0.0,0.0
15/07/2023,01:01:57,0.001,0.0,0.0,0.0
15/07/2023,01:02:57,0.000,0.0,0.0,0.0
15/07/2023,01:03:57,0.001,0.0,0.0,0.0
15/07/2023,01:04:57,0.001,0.0,0.0,0.0
15/07/2023,01:05:57,0.001,0.0,0.0,0.0
15/07/2023,01:06:57,0.001,0.0,0.0,0.0
15/07/2023,01:07:57,0.001,0.0,0.0,0.0
15/07/2023,01:08:57,0.002,0.0,0.0,0.0
15/07/2023,01:09:57,0.001,0.0,0.0,0.0
15/07/2023,01:10:57,0.001,0.0,0.0,0.0
15/07/2023,01:11:57,0.001,0.0,0.0,0.0
15/07/2023,01:12:57,0.001,0.0,0.0,0.0
15/07/2023,01:13:56,0.001,0.0,0.0,0.0
15/07/2023,01:14:57,0.001,0.0,0.0,0.0
15/07/2023,01:15:57,0.002,0.0,0.0,0.0
15/07/2023,01:16:57,0.002,0.0,0.0,0.0
15/07/2023,01:17:57,0.001,0.0,0.0,0.0
15/07/2023,01:18:58,0.001,0.0,0.0,0.0
15/07/2023,01:19:57,0.000,0.0,0.0,0.0
15/07/2023,01:20:57,0.001,0.0,0.0,0.0
15/07/2023,01:21:57,0.001,0.0,0.0,0.0
15/07/2023,01:22:57,0.002,0.0,0.0,0.0
15/07/2023,01:23:57,0.001,0.0,0.0,0.0
15/07/2023,01:24:57,0.000,0.0,0.0,0.0
15/07/2023,01:25:57,0.001,0.0,0.0,0.0
15/07/2023,01:26:57,0.000,0.0,0.0,0.0
15/07/2023,01:27:57,0.001,0.0,0.0,0.0
15/07/2023,01:28:57,0.001,0.0,0.0,0.0
15/07/2023,01:29:57,0.001,0.0,0.0,0.0
15/07/2023,01:30:57,0.001,0.0,0.0,0.0
15/07/2023,01:31:57,0.001,0.0,0.0,0.0
15/07/2023,01:32:57,0.001,0.0,0.0,0.0
15/07/2023,01:33:57,0.001,0.0,0.0,0.0
15/07/2023,01:34:57,0.001,0.0,0.0,0.0
15/07/2023,01:35:57,0.001,0.0,0.0,0.0
15/07/2023,01:36:57,0.001,0.0,0.0,0.0
15/07/2023,01:37:57,0.001,0.0,0.0,0.0
15/07/2023,01:38:57,0.001,0.0,0.0,0.0
15/07/2023,01:39:57,0.001,0.0,0.0,0.0
15/07/2023,01:40:57,0.001,0.0,0.0,0.0
15/07/2023,01:41:57,0.002,0.0,0.0,0.0
15/07/2023,01:42:56,0.000,0.0,0.0,0.0
15/07/2023,01:43:57,0.001,0.0,0.0,0.0
15/07/2023,01:44:57,0.001,0.0,0.0,0.0
15/07/2023,01:45:57,0.001,0.0,0.0,0.0
15/07/2023,01:46:56,0.002,0.0,0.0,0.0
15/07/2023,01:48:20,0.001,0.0,0.0,0.0
15/07/2023,01:49:57,0.000,0.0,0.0,0.0
15/07/2023,01:50:57,0.001,0.0,0.0,0.0
15/07/2023,01:51:57,0.001,0.0,0.0,0.0
15/07/2023,01:52:57,0.001,0.0,0.0,0.0
15/07/2023,01:53:57,0.000,0.0,0.0,0.0
15/07/2023,01:54:57,0.001,0.0,0.0,0.0
15/07/2023,01:55:57,0.002,0.0,0.0,0.0
15/07/2023,01:56:57,0.000,0.0,0.0,0.0
15/07/2023,01:57:57,0.001,0.0,0.0,0.0
15/07/2023,01:58:57,0.002,0.0,0.0,0.0
15/07/2023,01:59:57,0.001,0.0,0.0,0.0
15/07/2023,02:00:57,0.001,0.0,0.0,0.0
15/07/2023,02:01:57,0.001,0.0,0.0,0.0
15/07/2023,02:02:57,0.001,0.0,0.0,0.0
15/07/2023,02:03:57,0.000,0.0,0.0,0.0
15/07/2023,02:04:57,0.000,0.0,0.0,0.0
15/07/2023,02:05:57,0.000,0.0,0.0,0.0
15/07/2023,02:06:57,0.001,0.0,0.0,0.0
15/07/2023,02:07:57,0.000,0.0,0.0,0.0
15/07/2023,02:08:57,0.000,0.0,0.0,0.0
15/07/2023,02:09:57,0.000,0.0,0.0,0.0
15/07/2023,02:10:57,0.000,0.0,0.0,0.0
15/07/2023,02:11:57,0.001,0.0,0.0,0.0
15/07/2023,02:12:57,0.001,0.0,0.0,0.0
15/07/2023,02:13:57,0.000,0.0,0.0,0.0
15/07/2023,02:14:57,0.000,0.0,0.0,0.0
15/07/2023,02:15:57,0.000,0.0,0.0,0.0
15/07/2023,02:16:57,0.000,0.0,0.0,0.0
15/07/2023,02:17:57,0.000,0.0,0.0,0.0
15/07/2023,02:18:57,0.000,0.0,0.0,0.0
15/07/2023,02:19:57,0.000,0.0,0.0,0.0
15/07/2023,02:20:57,0.000,0.0,0.0,0.0
15/07/2023,02:21:57,0.000,0.0,0.0,0.0
15/07/2023,02:22:57,0.001,0.0,0.0,0.0
15/07/2023,02:23:57,0.000,0.0,0.0,0.0
15/07/2023,02:24:57,0.000,0.0,0.0,0.0
15/07/2023,02:25:57,0.000,0.0,0.0,0.0
15/07/2023,02:26:57,0.000,0.0,0.0,0.0
15/07/2023,02:27:57,0.000,0.0,0.0,0.0
15/07/2023,02:28:57,0.001,0.0,0.0,0.0
15/07/2023,02:29:57,0.000,0.0,0.0,0.0
15/07/2023,02:30:57,0.001,0.0,0.0,0.0
15/07/2023,02:31:57,0.000,0.0,0.0,0.0
15/07/2023,02:32:57,0.000,0.0,0.0,0.0
15/07/2023,02:33:58,0.001,0.0,0.0,0.0
15/07/2023,02:34:57,0.000,0.0,0.0,0.0
15/07/2023,02:35:57,0.000,0.0,0.0,0.0
15/07/2023,02:36:57,0.000,0.0,0.0,0.0
15/07/2023,02:37:57,0.001,0.0,0.0,0.0
15/07/2023,02:38:57,0.000,0.0,0.0,0.0
15/07/2023,02:39:58,0.000,0.0,0.0,0.0
15/07/2023,02:40:57,0.000,0.0,0.0,0.0
15/07/2023,02:41:58,0.000,0.0,0.0,0.0
15/07/2023,02:42:57,0.000,0.0,0.0,0.0
15/07/2023,02:43:57,0.001,0.0,0.0,0.0
15/07/2023,02:44:57,0.000,0.0,0.0,0.0
15/07/2023,02:45:57,0.000,0.0,0.0,0.0
15/07/2023,02:46:57,0.000,0.0,0.0,0.0
15/07/2023,02:47:57,0.000,0.0,0.0,0.0
15/07/2023,02:48:57,0.000,0.0,0.0,0.0
15/07/2023,02:49:57,0.000,0.0,0.0,0.0
15/07/2023,02:50:58,0.000,0.0,0.0,0.0
15/07/2023,02:51:57,0.000,0.0,0.0,0.0
15/07/2023,02:52:57,0.000,0.0,0.0,0.0
15/07/2023,02:53:57,0.000,0.0,0.0,0.0
15/07/2023,02:54:57,0.000,0.0,0.0,0.0
15/07/2023,02:55:58,0.000,0.0,0.0,0.0
15/07/2023,02:56:57,0.000,0.0,0.0,0.0
15/07/2023,02:57:57,0.000,0.0,0.0,0.0
15/07/2023,02:58:57,0.000,0.0,0.0,0.0
15/07/2023,02:59:57,0.000,0.0,0.0,0.0
15/07/2023,03:00:57,0.000,0.0,0.0,0.0
15/07/2023,03:01:57,0.000,0.0,0.0,0.0
15/07/2023,03:02:57,0.000,0.0,0.0,0.0
15/07/2023,03:03:57,0.000,0.0,0.0,0.0
15/07/2023,03:04:57,0.000,0.0,0.0,0.0
15/07/2023,03:05:58,0.000,0.0,0.0,0.0
15/07/2023,03:06:57,0.000,0.0,0.0,0.0
15/07/2023,03:07:57,0.000,0.0,0.0,0.0
15/07/2023,03:08:57,0.000,0.0,0.0,0.0
15/07/2023,03:09:57,0.000,0.0,0.0,0.0
15/07/2023,03:10:57,0.000,0.0,0.0,0.0
15/07/2023,03:11:57,0.000,0.0,0.0,0.0
15/07/2023,03:12:57,0.000,0.0,0.0,0.0
15/07/2023,03:13:57,0.000,0.0,0.0,0.0
15/07/2023,03:14:57,0.000,0.0,0.0,0.0
15/07/2023,03:15:57,0.000,0.0,0.0,0.0
15/07/2023,03:16:57,0.000,0.0,0.0,0.0
15/07/2023,03:17:57,0.000,0.0,0.0,0.0
15/07/2023,03:18:57,0.000,0.0,0.0,0.0
15/07/2023,03:19:57,0.000,0.0,0.0,0.0
15/07/2023,03:20:57,0.000,0.0,0.0,0.0
15/07/2023,03:21:58,0.000,0.0,0.0,0.0
15/07/2023,03:22:57,0.000,0.0,0.0,0.0
15/07/2023,03:23:57,0.000,0.0,0.0,0.0
15/07/2023,03:24:57,0.000,0.0,0.0,0.0
15/07/2023,03:25:57,0.000,0.0,0.0,0.0
15/07/2023,03:26:57,-0.000,0.0,0.0,0.0
15/07/2023,03:27:57,0.001,0.0,0.0,0.0
15/07/2023,03:28:57,0.000,0.0,0.0,0.0
15/07/2023,03:29:57,0.000,0.0,0.0,0.0
15/07/2023,03:30:57,0.000,0.0,0.0,0.0
15/07/2023,03:31:58,0.000,0.0,0.0,0.0
15/07/2023,03:32:57,0.000,0.0,0.0,0.0
15/07/2023,03:33:57,0.000,0.0,0.0,0.0
15/07/2023,03:34:57,0.000,0.0,0.0,0.0
15/07/2023,03:35:57,0.000,0.0,0.0,0.0
15/07/2023,03:36:57,0.000,0.0,0.0,0.0
15/07/2023,03:37:57,0.000,0.0,0.0,0.0
15/07/2023,03:38:57,0.001,0.0,0.0,0.0
15/07/2023,03:39:57,0.000,0.0,0.0,0.0
15/07/2023,03:40:58,0.001,0.0,0.0,0.0
15/07/2023,03:41:57,0.000,0.0,0.0,0.0
15/07/2023,03:42:57,0.001,0.0,0.0,0.0
15/07/2023,03:43:57,0.001,0.0,0.0,0.0
15/07/2023,03:44:57,0.001,0.0,0.0,0.0
15/07/2023,03:45:57,0.002,0.0,0.0,0.0
15/07/2023,03:46:58,0.000,0.0,0.0,0.0
15/07/2023,03:47:57,0.000,0.0,0.0,0.0
15/07/2023,03:48:57,0.001,0.0,0.0,0.0
15/07/2023,03:49:57,0.002,0.0,0.0,0.0
15/07/2023,03:50:57,0.001,0.0,0.0,0.0
15/07/2023,03:51:58,0.001,0.0,0.0,0.0
15/07/2023,03:52:57,0.001,0.0,0.0,0.0
15/07/2023,03:53:57,0.001,0.0,0.0,0.0
15/07/2023,03:54:57,0.001,0.0,0.0,0.0
15/07/2023,03:55:57,0.000,0.0,0.0,0.0
15/07/2023,03:56:57,0.001,0.0,0.0,0.0
15/07/2023,03:57:57,0.000,0.0,0.0,0.0
15/07/2023,03:58:57,0.001,0.0,0.0,0.0
15/07/2023,03:59:57,0.001,0.0,0.0,0.0
15/07/2023,04:00:57,0.001,0.0,0.0,0.0
15/07/2023,04:01:57,0.001,0.0,0.0,0.0
15/07/2023,04:02:57,0.001,0.0,0.0,0.0
15/07/2023,04:03:57,0.001,0.0,0.0,0.0
15/07/2023,04:04:58,0.001,0.0,0.0,0.0
15/07/2023,04:05:57,0.001,0.0,0.0,0.0
15/07/2023,04:06:58,0.002,0.0,0.0,0.0
15/07/2023,04:07:57,0.001,0.0,0.0,0.0
15/07/2023,04:08:57,0.002,0.0,0.0,0.0
15/07/2023,04:09:58,0.002,0.0,0.0,0.0
15/07/2023,04:10:57,0.001,0.0,0.0,0.0
15/07/2023,04:11:57,0.003,0.0,0.0,0.0
15/07/2023,04:12:57,0.002,0.0,0.0,0.0
15/07/2023,04:13:57,0.003,0.0,0.0,0.0
15/07/2023,04:14:57,0.003,0.0,0.0,0.0
15/07/2023,04:15:57,0.003,0.0,0.0,0.0
15/07/2023,04:16:57,0.002,0.0,0.0,0.0
15/07/2023,04:17:57,0.003,0.0,0.0,0.0
15/07/2023,04:18:58,0.003,0.0,0.0,0.0
15/07/2023,04:19:57,0.004,0.0,0.0,0.0
15/07/2023,04:20:57,0.003,0.0,0.0,0.0
15/07/2023,04:21:57,0.004,0.0,0.0,0.0
15/07/2023,04:22:57,0.004,0.0,0.0,0.0
15/07/2023,04:23:58,0.004,0.0,0.0,0.0
15/07/2023,04:24:57,0.005,0.0,0.0,0.0
15/07/2023,04:25:57,0.004,0.0,0.0,0.0
15/07/2023,04:26:58,0.004,0.0,0.0,0.0
15/07/2023,04:27:58,0.005,0.0,0.0,0.0
15/07/2023,04:28:57,0.006,0.0,0.0,0.0
15/07/2023,04:29:56,0.006,0.0,0.0,0.0
15/07/2023,04:30:57,0.007,0.0,0.0,0.0
15/07/2023,04:31:57,0.008,0.0,0.0,0.0
15/07/2023,04:32:57,0.009,0.0,0.0,0.0
15/07/2023,04:33:57,0.009,0.0,0.001,0.001
15/07/2023,04:34:58,0.008,0.0,0.001,0.0
15/07/2023,04:35:58,0.008,0.0,0.001,0.0
15/07/2023,04:36:57,0.008,0.0,0.001,0.0
15/07/2023,04:37:57,0.010,0.0,0.001,0.0
15/07/2023,04:38:57,0.012,0.0,0.001,0.0
15/07/2023,04:39:58,0.012,0.0,0.002,0.001
15/07/2023,04:40:57,0.013,0.0,0.002,0.0
15/07/2023,04:41:58,0.013,0.0,0.002,0.0
15/07/2023,04:42:57,0.014,0.0,0.002,0.0
15/07/2023,04:43:57,0.014,0.0,0.002,0.0
15/07/2023,04:44:57,0.014,0.0,0.003,0.001
15/07/2023,04:45:58,0.015,0.0,0.003,0.0
15/07/2023,04:46:57,0.016,0.0,0.003,0.0
15/07/2023,04:47:58,0.016,0.0,0.003,0.0
15/07/2023,04:48:57,0.016,0.0,0.004,0.001
15/07/2023,04:49:57,0.016,0.0,0.004,0.0
15/07/2023,04:50:57,0.016,0.0,0.004,0.0
15/07/2023,04:51:58,0.013,0.0,0.004,0.0
15/07/2023,04:52:58,0.014,0.0,0.005,0.001
15/07/2023,04:53:57,0.016,0.0,0.005,0.0
15/07/2023,04:54:57,0.017,0.0,0.005,0.0
15/07/2023,04:55:57,0.018,0.0,0.006,0.001
15/07/2023,04:56:58,0.018,0.0,0.006,0.0
15/07/2023,04:57:57,0.018,0.0,0.006,0.0
15/07/2023,04:58:57,0.020,0.0,0.006,0.0
15/07/2023,04:59:57,0.021,0.0,0.007,0.001
15/07/2023,05:00:57,0.021,0.0,0.007,0.0
15/07/2023,05:01:57,0.017,0.0,0.007,0.0
15/07/2023,05:02:58,0.015,0.0,0.008,0.001
15/07/2023,05:03:57,0.017,0.0,0.008,0.0
15/07/2023,05:04:58,0.017,0.0,0.008,0.0
15/07/2023,05:05:58,0.019,0.0,0.009,0.001
15/07/2023,05:06:57,0.021,0.0,0.009,0.0
15/07/2023,05:07:58,0.021,0.0,0.009,0.0
15/07/2023,05:08:57,0.021,0.0,0.01,0.001
15/07/2023,05:09:57,0.020,0.0,0.01,0.0
15/07/2023,05:10:58,0.018,0.0,0.01,0.0
15/07/2023,05:11:58,0.019,0.0,0.01,0.0
15/07/2023,05:12:57,0.018,0.0,0.011,0.001
15/07/2023,05:13:57,0.018,0.0,0.011,0.0
15/07/2023,05:14:57,0.017,0.0,0.011,0.0
15/07/2023,05:15:58,0.013,0.0,0.012,0.001
15/07/2023,05:16:57,0.016,0.0,0.012,0.0
15/07/2023,05:17:57,0.016,0.0,0.012,0.0
15/07/2023,05:18:57,0.015,0.0,0.012,0.0
15/07/2023,05:19:58,0.018,0.0,0.013,0.001
15/07/2023,05:20:57,0.021,0.0,0.013,0.0
15/07/2023,05:21:57,0.025,0.0,0.013,0.0
15/07/2023,05:22:57,0.025,0.0,0.014,0.001
15/07/2023,05:23:57,0.030,0.0,0.014,0.0
15/07/2023,05:24:58,0.037,0.0,0.015,0.001
15/07/2023,05:25:57,0.041,0.0,0.016,0.001
15/07/2023,05:26:57,0.042,0.0,0.016,0.0
15/07/2023,05:27:57,0.042,0.0,0.017,0.001
15/07/2023,05:28:57,0.037,0.0,0.018,0.001
15/07/2023,05:29:58,0.038,0.0,0.018,0.0
15/07/2023,05:30:57,0.042,0.0,0.019,0.001
15/07/2023,05:31:57,0.049,0.0,0.02,0.001
15/07/2023,05:32:57,0.053,0.0,0.02,0.0
15/07/2023,05:33:57,0.055,0.0,0.021,0.001
15/07/2023,05:34:57,0.052,0.0,0.022,0.001
15/07/2023,05:35:58,0.050,0.0,0.023,0.001
15/07/2023,05:36:58,0.049,0.0,0.024,0.001
15/07/2023,05:37:57,0.050,0.0,0.025,0.001
15/07/2023,05:38:57,0.053,0.0,0.026,0.001
15/07/2023,05:39:58,0.046,0.0,0.026,0.0
15/07/2023,05:40:57,0.045,0.0,0.027,0.001
15/07/2023,05:41:58,0.043,0.0,0.028,0.001
15/07/2023,05:42:57,0.036,0.0,0.029,0.001
15/07/2023,05:43:57,0.035,0.0,0.029,0.0
15/07/2023,05:44:58,0.039,0.0,0.03,0.001
15/07/2023,05:45:58,0.039,0.0,0.03,0.0
15/07/2023,05:46:57,0.039,0.0,0.031,0.001
15/07/2023,05:47:57,0.042,0.0,0.032,0.001
15/07/2023,05:48:57,0.039,0.0,0.032,0.0
15/07/2023,05:49:57,0.046,0.0,0.033,0.001
15/07/2023,05:50:57,0.048,0.0,0.034,0.001
15/07/2023,05:51:58,0.045,0.0,0.035,0.001
15/07/2023,05:52:57,0.047,0.0,0.035,0.0
15/07/2023,05:53:58,0.053,0.0,0.036,0.001
15/07/2023,05:54:58,0.060,0.0,0.037,0.001
15/07/2023,05:55:57,0.065,0.0,0.038,0.001
15/07/2023,05:56:58,0.067,0.0,0.039,0.001
15/07/2023,05:57:57,0.065,0.0,0.04,0.001
15/07/2023,05:58:57,0.062,0.0,0.042,0.002
15/07/2023,05:59:58,0.055,0.0,0.043,0.001
15/07/2023,06:00:57,0.061,0.0,0.043,0.0
15/07/2023,06:01:58,0.067,0.0,0.045,0.002
15/07/2023,06:02:57,0.074,0.0,0.046,0.001
15/07/2023,06:03:57,0.079,0.0,0.047,0.001
15/07/2023,06:04:57,0.085,0.0,0.048,0.001
15/07/2023,06:05:57,0.088,0.0,0.05,0.002
15/07/2023,06:06:58,0.088,0.0,0.051,0.001
15/07/2023,06:07:57,0.090,0.0,0.053,0.002
15/07/2023,06:08:57,0.093,0.0,0.054,0.001
15/07/2023,06:09:57,0.092,0.0,0.056,0.002
15/07/2023,06:10:57,0.088,0.0,0.057,0.001
15/07/2023,06:11:58,0.082,0.0,0.059,0.002
15/07/2023,06:12:57,0.081,0.0,0.06,0.001
15/07/2023,06:13:57,0.091,0.0,0.062,0.002
15/07/2023,06:14:58,0.103,0.0,0.063,0.001
15/07/2023,06:15:57,0.104,0.0,0.065,0.002
15/07/2023,06:16:57,0.107,0.0,0.067,0.002
15/07/2023,06:17:57,0.104,0.0,0.068,0.001
15/07/2023,06:18:57,0.095,0.0,0.07,0.002
15/07/2023,06:19:58,0.087,0.0,0.072,0.002
15/07/2023,06:20:57,0.087,0.0,0.073,0.001
15/07/2023,06:21:58,0.090,0.0,0.075,0.002
15/07/2023,06:22:57,0.091,0.0,0.076,0.001
15/07/2023,06:23:57,0.099,0.0,0.078,0.002
15/07/2023,06:24:58,0.105,0.0,0.079,0.001
15/07/2023,06:25:58,0.114,0.0,0.081,0.002
15/07/2023,06:26:57,0.124,0.0,0.083,0.002
15/07/2023,06:27:57,0.131,0.0,0.085,0.002
15/07/2023,06:28:58,0.131,0.0,0.087,0.002
15/07/2023,06:29:57,0.127,0.0,0.09,0.003
15/07/2023,06:30:57,0.136,0.0,0.092,0.002
15/07/2023,06:31:57,0.144,0.0,0.094,0.002
15/07/2023,06:32:58,0.147,0.0,0.097,0.003
15/07/2023,06:33:58,0.143,0.0,0.099,0.002
15/07/2023,06:34:58,0.140,0.0,0.101,0.002
15/07/2023,06:35:58,0.143,0.0,0.104,0.003
15/07/2023,06:36:58,0.150,0.0,0.106,0.002
15/07/2023,06:37:57,0.152,0.0,0.109,0.003
15/07/2023,06:38:57,0.150,0.0,0.111,0.002
15/07/2023,06:39:58,0.138,0.0,0.114,0.003
15/07/2023,06:40:58,0.126,0.0,0.116,0.002
15/07/2023,06:41:57,0.116,0.0,0.118,0.002
15/07/2023,06:42:58,0.090,0.0,0.12,0.002
15/07/2023,06:43:57,0.064,0.0,0.121,0.001
15/07/2023,06:44:57,0.067,0.0,0.122,0.001
15/07/2023,06:45:57,0.082,0.0,0.123,0.001
15/07/2023,06:46:58,0.115,0.0,0.125,0.002
15/07/2023,06:47:57,0.137,0.0,0.127,0.002
15/07/2023,06:48:58,0.158,0.0,0.129,0.002
15/07/2023,06:49:57,0.167,0.0,0.132,0.003
15/07/2023,06:50:57,0.156,0.0,0.135,0.003
15/07/2023,06:51:58,0.153,0.0,0.137,0.002
15/07/2023,06:52:57,0.164,0.0,0.14,0.003
15/07/2023,06:53:58,0.182,0.0,0.143,0.003
15/07/2023,06:54:57,0.177,0.0,0.146,0.003
15/07/2023,06:55:57,0.181,0.0,0.149,0.003
15/07/2023,06:56:57,0.196,0.0,0.152,0.003
15/07/2023,06:57:58,0.176,0.0,0.155,0.003
15/07/2023,06:58:57,0.148,0.0,0.158,0.003
15/07/2023,06:59:57,0.140,0.0,0.16,0.002
15/07/2023,07:00:58,0.137,0.0,0.163,0.003
15/07/2023,07:01:58,0.122,0.0,0.165,0.002
15/07/2023,07:02:57,0.109,0.0,0.167,0.002
15/07/2023,07:03:58,0.148,0.0,0.169,0.002
15/07/2023,07:04:57,0.196,0.0,0.172,0.003
15/07/2023,07:05:58,0.234,1.0,0.175,0.003
15/07/2023,07:06:57,0.215,0.0,0.179,0.004
15/07/2023,07:07:57,0.191,0.0,0.183,0.004
15/07/2023,07:08:57,0.164,0.0,0.185,0.002
15/07/2023,07:09:58,0.178,0.0,0.188,0.003
15/07/2023,07:10:58,0.183,0.0,0.191,0.003
15/07/2023,07:11:58,0.217,0.0,0.195,0.004
15/07/2023,07:12:57,0.255,1.0,0.199,0.004
15/07/2023,07:13:58,0.249,1.0,0.203,0.004
15/07/2023,07:14:58,0.241,1.0,0.207,0.004
15/07/2023,07:15:57,0.206,0.0,0.211,0.004
15/07/2023,07:16:57,0.212,0.0,0.214,0.003
15/07/2023,07:17:58,0.249,1.0,0.218,0.004
15/07/2023,07:18:57,0.244,1.0,0.222,0.004
15/07/2023,07:19:58,0.261,1.0,0.226,0.004
15/07/2023,07:20:57,0.235,1.0,0.231,0.005
15/07/2023,07:21:58,0.240,1.0,0.235,0.004
15/07/2023,07:22:57,0.294,1.0,0.239,0.004
15/07/2023,07:23:58,0.413,1.0,0.245,0.006
15/07/2023,07:24:57,0.336,1.0,0.251,0.006
15/07/2023,07:25:58,0.306,1.0,0.256,0.005
15/07/2023,07:26:57,0.324,1.0,0.261,0.005
15/07/2023,07:28:02,0.238,1.0,0.266,0.005
15/07/2023,07:28:59,0.223,1.0,0.269,0.003
15/07/2023,07:29:58,0.213,0.0,0.273,0.004
15/07/2023,07:30:58,0.209,0.0,0.277,0.004
15/07/2023,07:31:57,0.222,1.0,0.28,0.003
15/07/2023,07:33:02,0.237,1.0,0.284,0.004
15/07/2023,07:33:58,0.216,0.0,0.288,0.004
15/07/2023,07:34:58,0.171,0.0,0.291,0.003
15/07/2023,07:35:57,0.183,0.0,0.294,0.003
15/07/2023,07:36:57,0.179,0.0,0.297,0.003
15/07/2023,07:37:58,0.237,1.0,0.3,0.003
15/07/2023,07:38:58,0.240,1.0,0.304,0.004
15/07/2023,07:39:58,0.228,1.0,0.308,0.004
15/07/2023,07:40:57,0.228,1.0,0.312,0.004
15/07/2023,07:41:57,0.233,1.0,0.316,0.004
15/07/2023,07:42:58,0.232,1.0,0.32,0.004
15/07/2023,07:43:58,0.226,1.0,0.324,0.004
15/07/2023,07:44:57,0.251,1.0,0.328,0.004
15/07/2023,07:45:57,0.269,1.0,0.332,0.004
15/07/2023,07:46:58,0.286,1.0,0.337,0.005
15/07/2023,07:47:57,0.305,1.0,0.341,0.004
15/07/2023,07:48:58,0.313,1.0,0.347,0.006
15/07/2023,07:49:57,0.305,1.0,0.352,0.005
15/07/2023,07:50:58,0.292,1.0,0.357,0.005
15/07/2023,07:51:57,0.288,1.0,0.362,0.005
15/07/2023,07:52:57,0.287,1.0,0.366,0.004
15/07/2023,07:53:57,0.292,1.0,0.371,0.005
15/07/2023,07:54:58,0.295,1.0,0.376,0.005
15/07/2023,07:55:58,0.291,1.0,0.381,0.005
15/07/2023,07:56:57,0.274,1.0,0.386,0.005
15/07/2023,07:57:58,0.293,1.0,0.39,0.004
15/07/2023,07:58:58,0.318,1.0,0.396,0.006
15/07/2023,07:59:57,0.323,1.0,0.401,0.005
15/07/2023,08:00:58,0.326,1.0,0.406,0.005
15/07/2023,08:01:57,0.320,1.0,0.412,0.006
15/07/2023,08:02:58,0.308,1.0,0.417,0.005
15/07/2023,08:03:58,0.301,1.0,0.422,0.005
15/07/2023,08:04:57,0.307,1.0,0.427,0.005
15/07/2023,08:05:58,0.327,1.0,0.432,0.005
15/07/2023,08:06:57,0.346,1.0,0.438,0.006
15/07/2023,08:07:57,0.352,1.0,0.444,0.006
15/07/2023,08:08:57,0.342,1.0,0.45,0.006
15/07/2023,08:09:57,0.326,1.0,0.455,0.005
15/07/2023,08:10:58,0.314,1.0,0.46,0.005
15/07/2023,08:11:58,0.308,1.0,0.466,0.006
15/07/2023,08:12:58,0.315,1.0,0.471,0.005
15/07/2023,08:13:57,0.329,1.0,0.476,0.005
15/07/2023,08:14:58,0.336,1.0,0.482,0.006
15/07/2023,08:15:58,0.331,1.0,0.487,0.005
15/07/2023,08:16:58,0.328,1.0,0.493,0.006
15/07/2023,08:17:57,0.334,1.0,0.498,0.005
15/07/2023,08:18:57,0.337,1.0,0.504,0.006
15/07/2023,08:19:58,0.301,1.0,0.509,0.005
15/07/2023,08:20:58,0.272,1.0,0.514,0.005
15/07/2023,08:21:57,0.240,1.0,0.518,0.004
15/07/2023,08:22:58,0.226,1.0,0.522,0.004
15/07/2023,08:23:57,0.229,1.0,0.526,0.004
15/07/2023,08:24:57,0.252,1.0,0.53,0.004
15/07/2023,08:25:58,0.270,1.0,0.534,0.004
15/07/2023,08:26:58,0.266,1.0,0.539,0.005
15/07/2023,08:27:57,0.254,1.0,0.543,0.004
15/07/2023,08:28:58,0.256,1.0,0.547,0.004
15/07/2023,08:29:57,0.279,1.0,0.552,0.005
15/07/2023,08:30:58,0.306,1.0,0.557,0.005
15/07/2023,08:31:57,0.328,1.0,0.562,0.005
15/07/2023,08:32:58,0.346,1.0,0.568,0.006
15/07/2023,08:33:58,0.380,1.0,0.574,0.006
15/07/2023,08:34:57,0.426,1.0,0.58,0.006
15/07/2023,08:35:57,0.476,1.0,0.588,0.008
15/07/2023,08:36:57,0.544,1.0,0.596,0.008
15/07/2023,08:37:58,0.632,1.0,0.606,0.01
15/07/2023,08:38:57,0.733,2.0,0.618,0.012
15/07/2023,08:39:57,0.891,2.0,0.632,0.014
15/07/2023,08:40:58,1.062,2.0,0.648,0.016
15/07/2023,08:41:58,0.992,2.0,0.664,0.016
15/07/2023,08:42:57,0.884,2.0,0.679,0.015
15/07/2023,08:43:58,0.917,2.0,0.694,0.015
15/07/2023,08:44:58,1.074,2.0,0.711,0.017
15/07/2023,08:45:58,1.093,3.0,0.729,0.018
15/07/2023,08:46:58,1.101,3.0,0.747,0.018
15/07/2023,08:47:58,0.840,2.0,0.765,0.018
15/07/2023,08:48:59,1.122,3.0,0.783,0.018
15/07/2023,08:49:59,1.132,3.0,0.802,0.019
15/07/2023,08:50:58,1.144,3.0,0.821,0.019
15/07/2023,08:51:58,1.133,3.0,0.839,0.018
15/07/2023,08:52:58,1.156,3.0,0.858,0.019
15/07/2023,08:53:57,1.132,3.0,0.877,0.019
15/07/2023,08:54:57,1.143,3.0,0.894,0.017
15/07/2023,08:55:58,1.132,3.0,0.913,0.019
15/07/2023,08:56:58,1.143,3.0,0.931,0.018
15/07/2023,08:57:57,1.185,3.0,0.951,0.02
15/07/2023,08:58:57,1.184,3.0,0.97,0.019
15/07/2023,08:59:57,1.184,3.0,0.989,0.019
15/07/2023,09:00:57,1.079,2.0,1.009,0.02
15/07/2023,09:01:58,1.257,3.0,1.027,0.018
15/07/2023,09:02:58,1.252,3.0,1.047,0.02
15/07/2023,09:03:58,0.774,2.0,1.064,0.017
15/07/2023,09:04:58,1.275,3.0,1.08,0.016
15/07/2023,09:05:57,1.273,3.0,1.1,0.02
15/07/2023,09:06:58,1.242,3.0,1.117,0.017
15/07/2023,09:07:57,0.823,2.0,1.136,0.019
15/07/2023,09:08:58,1.320,3.0,1.153,0.017
15/07/2023,09:09:58,0.983,2.0,1.17,0.017
15/07/2023,09:10:57,0.991,2.0,1.184,0.014
15/07/2023,09:11:57,1.041,2.0,1.202,0.018
15/07/2023,09:12:57,0.828,2.0,1.218,0.016
15/07/2023,09:13:58,0.844,2.0,1.234,0.016
15/07/2023,09:14:57,0.850,2.0,1.249,0.015
15/07/2023,09:15:58,0.822,2.0,1.261,0.012
15/07/2023,09:16:57,1.372,3.0,1.282,0.021
15/07/2023,09:17:57,0.858,2.0,1.305,0.023
15/07/2023,09:18:58,1.395,3.0,1.325,0.02
15/07/2023,09:19:57,1.393,3.0,1.347,0.022
15/07/2023,09:20:58,1.108,3.0,1.364,0.017
15/07/2023,09:21:58,0.931,2.0,1.384,0.02
15/07/2023,09:22:57,0.792,2.0,1.397,0.013
15/07/2023,09:23:56,1.052,2.0,1.411,0.014
15/07/2023,09:24:58,0.848,2.0,1.426,0.015
15/07/2023,09:25:58,0.732,2.0,1.443,0.017
15/07/2023,09:26:58,0.623,1.0,1.454,0.011
15/07/2023,09:27:57,0.607,1.0,1.464,0.01
15/07/2023,09:28:58,0.621,1.0,1.476,0.012
15/07/2023,09:29:58,0.635,1.0,1.487,0.011
15/07/2023,09:30:58,0.720,2.0,1.498,0.011
15/07/2023,09:31:57,1.412,3.0,1.517,0.019
15/07/2023,09:33:27,0.649,1.0,1.538,0.021
15/07/2023,09:34:58,0.805,2.0,1.557,0.019
15/07/2023,09:35:58,0.827,2.0,1.571,0.014
15/07/2023,09:36:58,0.808,2.0,1.586,0.015
15/07/2023,09:37:58,1.419,3.0,1.603,0.017
15/07/2023,09:38:58,1.536,4.0,1.625,0.022
15/07/2023,09:39:58,1.517,3.0,1.65,0.025
15/07/2023,09:40:58,1.196,3.0,1.669,0.019
15/07/2023,09:41:58,1.352,3.0,1.691,0.022
15/07/2023,09:42:58,1.178,3.0,1.71,0.019
15/07/2023,09:43:57,1.577,4.0,1.734,0.024
15/07/2023,09:44:57,1.558,4.0,1.758,0.024
15/07/2023,09:45:58,1.416,3.0,1.783,0.025
15/07/2023,09:46:57,1.536,4.0,1.808,0.025
15/07/2023,09:47:57,1.539,4.0,1.834,0.026
15/07/2023,09:48:58,1.543,4.0,1.86,0.026
15/07/2023,09:49:57,1.552,4.0,1.886,0.026
15/07/2023,09:50:58,1.555,4.0,1.911,0.025
15/07/2023,09:51:58,1.554,4.0,1.937,0.026
15/07/2023,09:52:58,1.570,4.0,1.963,0.026
15/07/2023,09:53:57,1.601,4.0,1.99,0.027
15/07/2023,09:54:58,1.589,4.0,2.016,0.026
15/07/2023,09:55:58,1.590,4.0,2.043,0.027
15/07/2023,09:56:58,1.612,4.0,2.069,0.026
15/07/2023,09:57:58,1.626,4.0,2.096,0.027